Location: Bletchingley
(51.2333°N, 0.1000°W)
Time: 14:49:39
(UTC+00:00)

Lacrosse 5 rocket - Pass Details

Date: 18 September 2020
Orbit: 460 x 636 km, 57.0° (Epoch: 27 October)

Event Time Altitude Azimuth Distance (km) Brightness Sun altitude
Rises 19:45:06 0° 267° (W) 2,761 6.1 -15.7°
Reaches altitude 10° 19:47:22 10° 274° (W) 1,895 5.2 -16.1°
Maximum altitude 19:51:31 44° 348° (NNW) 834 2.5 -16.7°
Enters shadow 19:55:07 14° 57° (ENE) 1,710 3.5 -17.2°
